Terminal Aerodrome Forecast
Issued by NWS

Home | Current Version | Previous Version | Text Only | Print | Product List | Glossary On
Versions: 1 2 3 4 5 6 7 8 9 10 11 12 13 14 15 16 17 18 19 20 21 22 23 24 25 26 27 28 29 30 31 32 33 34 35 36 37 38 39 40 41 42 43 44 45 46 47 48 49 50
000
FTAK31 PANC 280530
TAFACV
TAF
PACV 280530Z 2806/2906 VRB03KT 6SM -RA BR SCT005 SCT015 OVC035
      TEMPO 2806/2810 2SM -RA BR BKN005 OVC015
     FM281000 VRB04KT 2SM -RA BKN005 OVC015
     FM282100 VRB03KT 6SM -RA BKN008
     FM290000 VRB03KT P6SM VCSH BKN025=

USA.gov is the U.S. government's official web portal to all federal, state and local government web resources and services.